Paso Robles, CA

9:53 PM PST on December 13, 2019 (GMT -0800)
Paso Robles Municipal

Weather History for KPRB - October, 2019

Change the Weather History Date:

Saturday, October 19, 2019

  Actual Average Record
Temperature  
Mean Temperature 58 °F 61 °F  
Max Temperature 78 °F 78 °F 99 °F (1984)
Min Temperature 37 °F 44 °F 27 °F (1949)
Degree Days  
Heating Degree Days 8 5  
Month to date heating degree days 85 62  
Since 1 July heating degree days 111 94  
Cooling Degree Days 0 1  
Month to date cooling degree days 11 33  
Year to date cooling degree days 1046 924  
Growing Degree Days 8 (Base 50)    
Moisture  
Dew Point 44 °F    
Average Humidity 63    
Maximum Humidity 93    
Minimum Humidity 27    
Precipitation  
Precipitation 0.00 in 0.02 in 1.86 in (2004)
Month to date precipitation 0.00 0.29  
Year to date precipitation 11.28 9.41  
Sea Level Pressure  
Sea Level Pressure 30.04 in    
Wind  
Wind Speed 6 mph ()    
Max Wind Speed 20 mph    
Max Gust Speed 23 mph    
Visibility 10.0 miles    
Events      
T = Trace of Precipitation, MM = Missing Value Source: Averaged Metar Reports

Daily Weather History Graph

Daily Weather History Graph

Search for Another Location

Airport or City:

Astronomy

Oct. 19, 2019 Rise Set
Actual Time 7:12 AM PDT 6:22 PM PDT
Civil Twilight 6:46 AM PDT 6:47 PM PDT
Nautical Twilight 6:16 AM PDT 7:17 PM PDT
Astronomical Twilight 5:47 AM PDT 7:47 PM PDT
Moon 10:44 PM PDT (10/19) 12:41 PM PDT (10/19)
Length of Visible Light 12h 01m
Length of Day
11h 09m
Waning Gibbous, 68% of the Moon is Illuminated
Oct 19
Waning Gibbous
Oct 21
Last Quarter
Oct 27
New
Nov 4
First Quarter
Nov 12
Full

Hourly Weather History & Observations

Time (PDT) Temp. Windchill Dew Point Humidity Pressure Visibility Wind Dir Wind Speed Gust Speed Precip Events Conditions
12:53 AM 53.1 °F - 44.1 °F 71% 30.05 in 10.0 mi NW 10.4 mph - N/A   Clear
1:53 AM 50.0 °F - 43.0 °F 77% 30.05 in 10.0 mi NNW 5.8 mph - N/A   Clear
2:53 AM 44.1 °F - 37.9 °F 79% 30.06 in 10.0 mi Calm Calm - N/A   Clear
3:53 AM 42.1 °F 40.2 °F 37.0 °F 82% 30.06 in 10.0 mi ENE 3.5 mph - N/A   Clear
4:53 AM 42.1 °F 37.7 °F 37.0 °F 82% 30.05 in 10.0 mi East 6.9 mph - N/A   Clear
5:53 AM 39.9 °F 36.7 °F 36.0 °F 86% 30.06 in 10.0 mi NE 4.6 mph - N/A   Clear
6:53 AM 39.0 °F - 35.1 °F 86% 30.08 in 10.0 mi Calm Calm - N/A   Clear
7:53 AM 41.0 °F 39.0 °F 37.0 °F 86% 30.08 in 10.0 mi ESE 3.5 mph - N/A   Clear
8:53 AM 48.9 °F - 39.9 °F 71% 30.10 in 10.0 mi ENE 3.5 mph - N/A   Clear
9:53 AM 54.0 °F - 44.1 °F 69% 30.11 in 10.0 mi Calm Calm - N/A   Clear
10:53 AM 59.0 °F - 44.1 °F 58% 30.11 in 10.0 mi NNW 6.9 mph - N/A   Clear
11:53 AM 66.9 °F - 42.1 °F 40% 30.08 in 10.0 mi NNW 10.4 mph - N/A   Clear
12:53 PM 71.1 °F - 39.9 °F 32% 30.06 in 10.0 mi Variable 5.8 mph - N/A   Clear
1:53 PM 75.0 °F - 39.9 °F 28% 30.03 in 10.0 mi NW 9.2 mph - N/A   Clear
2:53 PM 75.9 °F - 41.0 °F 29% 30.00 in 10.0 mi WNW 5.8 mph - N/A   Clear
3:53 PM 77.0 °F - 41.0 °F 28% 29.98 in 10.0 mi North 3.5 mph - N/A   Clear
4:53 PM 77.0 °F - 42.1 °F 29% 29.97 in 10.0 mi West 5.8 mph - N/A   Clear
5:53 PM 75.0 °F - 46.0 °F 36% 29.97 in 10.0 mi NNW 11.5 mph - N/A   Clear
6:53 PM 68.0 °F - 51.1 °F 55% 29.99 in 10.0 mi NW 16.1 mph - N/A   Clear
7:53 PM 64.0 °F - 52.0 °F 65% 30.01 in 10.0 mi NW 16.1 mph - N/A   Clear
8:53 PM 62.1 °F - 53.1 °F 72% 30.00 in 10.0 mi WNW 12.7 mph - N/A   Clear
9:53 PM 60.1 °F - 54.0 °F 80% 30.02 in 10.0 mi NW 12.7 mph - N/A   Clear
10:53 PM 57.9 °F - 55.0 °F 90% 30.02 in 10.0 mi NW 12.7 mph - N/A   Clear
11:53 PM 57.0 °F - 55.0 °F 93% 30.03 in 10.0 mi NW 13.8 mph - N/A   Clear